This is the latest recevied weather packets stored in our database for station/object F5ZMN-13. If no packets are shown the sender has not sent any weather packets the latest 10 day(s).
| Time | Temp. | Humidity | Pressure | Rain* | Wind** | Luminosity | Snow |
|---|---|---|---|---|---|---|---|
| 1788113041 | 27.22° C | 50% | 1021.1 hPa | 0 mm | - | - | - |
| 1788112423 | 27.78° C | 50% | 1021 hPa | 0 mm | - | - | - |
| 1788111804 | 27.78° C | 50% | 1020.8 hPa | 0 mm | - | - | - |
| 1788111186 | 27.22° C | 50% | 1020.8 hPa | 0 mm | - | - | - |
| 1788110567 | 27.78° C | 50% | 1020.7 hPa | 0 mm | - | - | - |
| 1788109949 | 27.78° C | 50% | 1020.6 hPa | 0 mm | - | - | - |
| 1788109330 | 27.78° C | 50% | 1020.6 hPa | 0 mm | - | - | - |
| 1788108712 | 27.78° C | 50% | 1020.6 hPa | 0 mm | - | - | - |
| 1788108093 | 27.78° C | 50% | 1020.7 hPa | 0 mm | - | - | - |
| 1788107475 | 28.33° C | 50% | 1020.6 hPa | 0 mm | - | - | - |
| 1788106856 | 28.33° C | 50% | 1020.6 hPa | 0 mm | - | - | - |
| 1788106237 | 28.33° C | 49% | 1020.2 hPa | 0 mm | - | - | - |
| 1788105619 | 28.89° C | 49% | 1020.1 hPa | 0 mm | - | - | - |
| 1788105000 | 29.44° C | 48% | 1019.9 hPa | 0 mm | - | - | - |
| 1788104382 | 29.44° C | 48% | 1019.7 hPa | 0 mm | - | - | - |
| 1788103763 | 28.89° C | 48% | 1019.6 hPa | 0 mm | - | - | - |
| 1788103145 | 29.44° C | 47% | 1019.4 hPa | 0 mm | - | - | - |
| 1788102526 | 29.44° C | 48% | 1019.2 hPa | 0 mm | - | - | - |
| 1788101908 | 29.44° C | 47% | 1018.9 hPa | 0 mm | - | - | - |
| 1788101289 | 28.89° C | 48% | 1018.8 hPa | 0 mm | - | - | - |
| 1788100670 | 28.89° C | 49% | 1018.6 hPa | 0 mm | - | - | - |
| 1788100052 | 28.33° C | 50% | 1018.4 hPa | 0 mm | - | - | - |
| 1788099433 | 28.33° C | 50% | 1018.3 hPa | 0 mm | - | - | - |
| 1788098815 | 28.33° C | 50% | 1018.1 hPa | 0 mm | - | - | - |
| 1788098196 | 27.78° C | 51% | 1018.1 hPa | 0 mm | - | - | - |
* Rain latest hour (hover to see other rain measurements)
** Current wind speed in m/s (hover to see current wind gust speed)